Ithaca, NY

8:57 AM EST on February 21, 2018 (GMT -0500)
Tompkins County

Weather History for KITH - December, 2014

Change the Weather History Date:

Monday, December 1, 2014

  Actual Average Record
Temperature  
Mean Temperature 39 °F -  
Max Temperature 52 °F 39 °F 65 °F (2006)
Min Temperature 26 °F 24 °F -5 °F (1936)
Degree Days  
Heating Degree Days 26    
Moisture  
Dew Point 34 °F    
Average Humidity 79    
Maximum Humidity 97    
Minimum Humidity 61    
Precipitation  
Precipitation 0.00 in - - ()
Sea Level Pressure  
Sea Level Pressure 30.24 in    
Wind  
Wind Speed 11 mph (NW)    
Max Wind Speed 18 mph    
Max Gust Speed 23 mph    
Visibility 9 miles    
Events Rain    
Averages and records for this station are not official NWS values.
T = Trace of Precipitation, MM = Missing Value Source: NWS Daily Summary

Daily Weather History Graph

Daily Weather History Graph

Search for Another Location

Airport or City:

Trip Planner

Search our weather history database for the weather conditions in past years. The results will help you decide how hot, cold, wet, or windy it might be!

Date:

Astronomy

Dec. 01, 2014 Rise Set
Actual Time 7:15 AM EST 4:33 PM EST
Civil Twilight 6:44 AM EST 5:05 PM EST
Nautical Twilight 6:09 AM EST 5:40 PM EST
Astronomical Twilight 5:35 AM EST 6:14 PM EST
Moon 1:43 PM EST (12/1) 1:43 AM EST (12/1)
Length of Visible Light 10h 20m
Length of Day
9h 18m
Waxing Gibbous, 75% of the Moon is Illuminated
Dec 1
Waxing Gibbous
Dec 6
Full
Dec 14
Last Quarter
Dec 21
New
Dec 28
First Quarter

Hourly Weather History & Observations

Time (EST) Temp. Windchill Dew Point Humidity Pressure Visibility Wind Dir Wind Speed Gust Speed Precip Events Conditions
12:56 AM 52.0 °F - 43.9 °F 74% 29.96 in 10.0 mi South 11.5 mph - N/A   Overcast
1:56 AM 52.9 °F - 43.9 °F 71% 29.97 in 10.0 mi South 9.2 mph - N/A   Overcast
2:49 AM 51.8 °F - 44.6 °F 76% 29.99 in 10.0 mi WSW 3.5 mph - 0.00 in Rain Light Rain
2:56 AM 52.0 °F - 45.0 °F 77% 30.01 in 10.0 mi SW 4.6 mph - 0.00 in   Overcast
3:14 AM 51.8 °F - 46.4 °F 82% 29.99 in 10.0 mi SSW 8.1 mph - 0.00 in Rain Light Rain
3:56 AM 52.0 °F - 46.9 °F 83% 30.01 in 10.0 mi SW 9.2 mph - 0.00 in   Overcast
4:26 AM 51.8 °F - 48.2 °F 88% 30.04 in 6.0 mi NW 16.1 mph - 0.00 in Rain Light Rain
4:33 AM 48.2 °F - 46.4 °F 93% 30.04 in 4.0 mi North 12.7 mph - 0.00 in Rain Light Rain
4:40 AM 48.2 °F - 46.4 °F 93% 30.05 in 4.0 mi North 10.4 mph - 0.00 in Rain Light Rain
4:56 AM 45.9 °F 41.7 °F 45.0 °F 97% 30.07 in 6.0 mi NNW 8.1 mph - 0.00 in   Overcast
5:10 AM 46.4 °F 41.5 °F 44.6 °F 93% 30.06 in 9.0 mi NNW 10.4 mph - 0.00 in   Overcast
5:56 AM 43.9 °F 38.3 °F 43.0 °F 97% 30.11 in 8.0 mi NNW 10.4 mph - 0.00 in Rain Light Rain
6:19 AM 44.6 °F 39.7 °F 42.8 °F 93% 30.11 in 7.0 mi NNW 9.2 mph - 0.00 in Rain Light Rain
6:56 AM 41.9 °F 34.6 °F 41.0 °F 97% 30.15 in 7.0 mi NNW 13.8 mph - 0.00 in Rain Light Rain
7:56 AM 39.9 °F 32.5 °F 37.9 °F 93% 30.19 in 5.0 mi NNW 12.7 mph - 0.00 in   Overcast
8:56 AM 37.9 °F 30.0 °F 36.0 °F 93% 30.23 in 4.0 mi NNW 12.7 mph - N/A   Overcast
9:56 AM 37.9 °F 30.9 °F 34.9 °F 89% 30.25 in 10.0 mi NNW 10.4 mph - N/A   Overcast
10:56 AM 37.9 °F 30.5 °F 34.9 °F 89% 30.26 in 10.0 mi NNW 11.5 mph - N/A   Overcast
11:56 AM 36.9 °F 27.5 °F 32.9 °F 86% 30.27 in 10.0 mi NNW 16.1 mph 23.0 mph N/A   Overcast
12:56 PM 36.9 °F 27.5 °F 31.1 °F 80% 30.28 in 10.0 mi NW 16.1 mph 20.7 mph N/A   Overcast
1:56 PM 36.9 °F 26.8 °F 28.0 °F 70% 30.31 in 10.0 mi NNW 18.4 mph - N/A   Mostly Cloudy
2:56 PM 36.0 °F 28.0 °F 27.1 °F 70% 30.33 in 10.0 mi NNW 11.5 mph - N/A   Mostly Cloudy
3:56 PM 36.0 °F 26.7 °F 26.1 °F 67% 30.37 in 10.0 mi NNW 15.0 mph - N/A   Scattered Clouds
4:56 PM 34.9 °F 26.6 °F 26.1 °F 70% 30.42 in 10.0 mi NW 11.5 mph - N/A   Mostly Cloudy
5:56 PM 32.0 °F 21.2 °F 21.0 °F 64% 30.46 in 10.0 mi NNW 16.1 mph 20.7 mph N/A   Scattered Clouds
6:56 PM 31.1 °F 20.9 °F 19.0 °F 61% 30.50 in 10.0 mi NNW 13.8 mph - N/A   Partly Cloudy
7:56 PM 31.1 °F 22.4 °F 20.1 °F 64% 30.52 in 10.0 mi NNW 10.4 mph - N/A   Mostly Cloudy
8:56 PM 31.1 °F 21.9 °F 20.1 °F 64% 30.54 in 10.0 mi NW 11.5 mph - N/A   Mostly Cloudy
9:56 PM 29.1 °F 17.9 °F 19.0 °F 66% 30.57 in 10.0 mi North 15.0 mph - N/A   Mostly Cloudy
10:56 PM 28.0 °F 18.6 °F 17.1 °F 63% 30.60 in 10.0 mi NNW 10.4 mph 19.6 mph N/A   Overcast
11:28 PM 26.6 °F 16.2 °F 15.8 °F 64% 30.56 in 10.0 mi NNW 11.5 mph 16.1 mph N/A   Overcast
11:56 PM 27.1 °F 18.9 °F 16.2 °F 63% 30.61 in 10.0 mi NNW 8.1 mph - N/A   Overcast